Tracking 19145 objects as of 25-Apr-2018
HD Live streaming from Space Station
objects crossing your sky now

NOVA 3

Track NOVA 3 now!
10-day predictions
NOVA 3 is classified as:


NORAD ID: 15362
Int'l Code: 1984-110A
Perigee: 1,151.6 km
Apogee: 1,203.3 km
Inclination: 90.1 °
Period: 108.8 minutes
Semi major axis: 7548 km
RCS: 1.829 m2 (large)
Launch date: October 12, 1984
Source: United States (US)
Launch site: AIR FORCE WESTERN TEST RANGE (AFWTR)
aabbcc
Your satellite tracking list
Your tracking list is empty




NASA's NSSDC Master Catalog

Two Line Element Set (TLE):
1 15362U 84110A   18114.91210045  .00153255  00000-0  35322+0 0  9993
2 15362  90.0558  56.2908 0034208  92.1537 336.6365 13.23779329618553
Source of the keplerian elements: AFSPC